Winston-Salem, NC

3:08 AM EST on February 21, 2018 (GMT -0500)
Smith Reynolds

Weather History for KINT - March, 2014

Change the Weather History Date:

Thursday, March 13, 2014

  Actual Average Record
Temperature  
Mean Temperature 37 °F -  
Max Temperature 44 °F 55 °F 87 °F (1990)
Min Temperature 30 °F 38 °F 21 °F (1969)
Degree Days  
Heating Degree Days 28    
Moisture  
Dew Point 8 °F    
Average Humidity 31    
Maximum Humidity 50    
Minimum Humidity 16    
Precipitation  
Precipitation 0.00 in - - ()
Sea Level Pressure  
Sea Level Pressure 30.00 in    
Wind  
Wind Speed 12 mph (NW)    
Max Wind Speed 17 mph    
Max Gust Speed 31 mph    
Visibility 10 miles    
Events      
Averages and records for this station are not official NWS values.
T = Trace of Precipitation, MM = Missing Value Source: NWS Daily Summary

Daily Weather History Graph

Daily Weather History Graph

Search for Another Location

Airport or City:

Trip Planner

Search our weather history database for the weather conditions in past years. The results will help you decide how hot, cold, wet, or windy it might be!

Date:

Astronomy

Mar. 13, 2014 Rise Set
Actual Time 7:34 AM EDT 7:26 PM EDT
Civil Twilight 7:08 AM EDT 7:52 PM EDT
Nautical Twilight 6:39 AM EDT 8:21 PM EDT
Astronomical Twilight 6:09 AM EDT 8:52 PM EDT
Moon 4:54 PM EDT (3/13) 5:36 AM EDT (3/13)
Length of Visible Light 12h 43m
Length of Day
11h 52m
Waxing Gibbous, 91% of the Moon is Illuminated
Mar 13
Waxing Gibbous
Mar 16
Full
Mar 23
Last Quarter
Mar 30
New
Apr 7
First Quarter

Hourly Weather History & Observations

Time (EDT) Temp. Windchill Dew Point Humidity Pressure Visibility Wind Dir Wind Speed Gust Speed Precip Events Conditions
12:54 AM 39.9 °F 31.4 °F 19.9 °F 45% 29.71 in 10.0 mi WNW 16.1 mph 31.1 mph N/A   Mostly Cloudy
1:54 AM 37.0 °F 28.5 °F 17.1 °F 44% 29.75 in 10.0 mi NW 13.8 mph 25.3 mph N/A   Partly Cloudy
2:54 AM 35.1 °F 25.9 °F 18.0 °F 50% 29.75 in 10.0 mi NW 13.8 mph 20.7 mph N/A   Clear
3:54 AM 34.0 °F 26.0 °F 12.9 °F 42% 29.77 in 10.0 mi NNW 10.4 mph 23.0 mph N/A   Clear
4:54 AM 33.1 °F 23.9 °F 14.0 °F 46% 29.79 in 10.0 mi WNW 12.7 mph 19.6 mph N/A   Mostly Cloudy
5:54 AM 33.1 °F 26.1 °F 12.9 °F 43% 29.83 in 10.0 mi WNW 8.1 mph - N/A   Overcast
6:54 AM 32.0 °F 22.1 °F 10.9 °F 42% 29.87 in 10.0 mi NW 13.8 mph 23.0 mph N/A   Scattered Clouds
7:54 AM 30.9 °F 21.7 °F 10.0 °F 42% 29.91 in 10.0 mi NW 11.5 mph - N/A   Partly Cloudy
8:54 AM 32.0 °F 20.8 °F 9.0 °F 38% 29.96 in 10.0 mi NW 17.3 mph 27.6 mph N/A   Clear
9:54 AM 34.0 °F 25.0 °F 8.1 °F 34% 29.99 in 10.0 mi NW 12.7 mph 24.2 mph N/A   Clear
10:54 AM 35.1 °F 27.4 °F 8.1 °F 33% 30.02 in 10.0 mi NW 10.4 mph - N/A   Partly Cloudy
11:54 AM 37.0 °F 28.1 °F 3.9 °F 25% 30.04 in 10.0 mi WNW 15.0 mph 26.5 mph N/A   Clear
12:54 PM 37.9 °F 28.9 °F 1.9 °F 22% 30.05 in 10.0 mi WNW 16.1 mph 27.6 mph N/A   Clear
1:54 PM 39.9 °F 33.4 °F 1.9 °F 20% 30.06 in 10.0 mi NW 10.4 mph 23.0 mph N/A   Clear
2:54 PM 42.1 °F 34.2 °F 3.9 °F 21% 30.05 in 10.0 mi NNW 16.1 mph 25.3 mph N/A   Clear
3:54 PM 43.0 °F 36.4 °F 1.9 °F 18% 30.07 in 10.0 mi WNW 12.7 mph 24.2 mph N/A   Clear
4:54 PM 44.1 °F 37.1 °F 1.0 °F 17% 30.06 in 10.0 mi NNW 15.0 mph 23.0 mph N/A   Clear
5:54 PM 44.1 °F 37.1 °F -0.0 °F 16% 30.09 in 10.0 mi NW 15.0 mph 20.7 mph N/A   Clear
6:54 PM 43.0 °F 37.2 °F -0.0 °F 17% 30.13 in 10.0 mi NW 10.4 mph 17.3 mph N/A   Clear
7:54 PM 39.9 °F 35.8 °F 3.0 °F 21% 30.16 in 10.0 mi NNW 5.8 mph - N/A   Clear
8:54 PM 37.0 °F - 5.0 °F 26% 30.19 in 10.0 mi Calm Calm - N/A   Clear
9:54 PM 33.1 °F 28.7 °F 8.1 °F 35% 30.22 in 10.0 mi North 4.6 mph - N/A   Clear
10:54 PM 37.0 °F 32.4 °F 3.0 °F 24% 30.22 in 10.0 mi NW 5.8 mph - N/A   Clear
11:54 PM 32.0 °F - 6.1 °F 34% 30.23 in 10.0 mi Calm Calm - N/A   Clear